DAL215 KATL-KCVG

Flight info

Callsign DAL215
Flight time 0h 59m
Altitude 37000
Route PADGT2 SMTTH DCT ARTUR JAKIE7
Aircraft A21N/M-SDE2E3FGHIRWXY/LB1

Departure

Time 2026-05-08 00:53
Airport Hartsfield Jackson Atlanta International Airport (KATL)

Arrival

Time 2026-05-08 01:52
Airport Cincinnati Northern Kentucky International Airport (KCVG)
Time Latitude Longitude Altitude Speed Heading
2026-05-08 00:34 33.63983 -84.43209 1014 ft 0 kts 275°
2026-05-08 00:41 33.63982 -84.43205 1014 ft 3 kts 275°
2026-05-08 00:42 33.63981 -84.43182 1013 ft 3 kts 285°
2026-05-08 00:42 33.63974 -84.43159 1013 ft 3 kts 320°
2026-05-08 00:42 33.63957 -84.43146 1012 ft 3 kts 330°
2026-05-08 00:42 33.63940 -84.43134 1011 ft 3 kts 345°
2026-05-08 00:43 33.63927 -84.43129 1010 ft 0 kts 355°
2026-05-08 00:45 33.63941 -84.43130 1011 ft 8 kts 357°
2026-05-08 00:45 33.64045 -84.43132 1015 ft 19 kts
2026-05-08 00:45 33.64184 -84.43132 1018 ft 21 kts 360°
2026-05-08 00:45 33.64340 -84.43130 1023 ft 25 kts 360°
2026-05-08 00:46 33.64450 -84.43102 1029 ft 16 kts 45°
2026-05-08 00:46 33.64460 -84.42946 1024 ft 20 kts 90°
2026-05-08 00:46 33.64462 -84.42792 1022 ft 17 kts 88°
2026-05-08 00:46 33.64470 -84.42647 1020 ft 24 kts 90°
2026-05-08 00:47 33.64470 -84.42440 1013 ft 24 kts 89°
2026-05-08 00:47 33.64475 -84.42257 1012 ft 20 kts 72°
2026-05-08 00:47 33.64539 -84.42117 1014 ft 19 kts 70°
2026-05-08 00:47 33.64543 -84.41965 1013 ft 17 kts 90°
2026-05-08 00:48 33.64544 -84.41842 1014 ft 12 kts 89°
2026-05-08 00:48 33.64545 -84.41765 1015 ft 6 kts 90°
2026-05-08 00:48 33.64544 -84.41662 1016 ft 13 kts 90°
2026-05-08 00:48 33.64545 -84.41486 1015 ft 21 kts 90°
2026-05-08 00:49 33.64545 -84.41330 1014 ft 16 kts 90°
2026-05-08 00:49 33.64544 -84.41189 1012 ft 25 kts 89°
2026-05-08 00:49 33.64544 -84.40944 1006 ft 29 kts 90°
2026-05-08 00:49 33.64571 -84.40730 1002 ft 23 kts 85°
2026-05-08 00:50 33.64583 -84.40584 1000 ft 4 kts 54°
2026-05-08 00:51 33.64584 -84.40582 1000 ft 3 kts 52°
2026-05-08 00:51 33.64649 -84.40574 1000 ft 12 kts 344°
2026-05-08 00:51 33.64681 -84.40650 1000 ft 12 kts 272°
2026-05-08 00:52 33.64679 -84.40739 1002 ft 7 kts 269°
2026-05-08 00:52 33.64679 -84.40751 1002 ft 0 kts 270°
2026-05-08 00:52 33.64679 -84.41052 1009 ft 76 kts 270°
2026-05-08 00:53 33.64678 -84.42006 1016 ft 152 kts 270°
2026-05-08 00:53 33.64670 -84.43507 1359 ft 201 kts 270°
2026-05-08 00:53 33.64654 -84.45294 2210 ft 221 kts 272°
2026-05-08 00:53 33.64969 -84.47074 3584 ft 219 kts 296°
2026-05-08 00:54 33.65643 -84.48698 4950 ft 215 kts 295°
2026-05-08 00:54 33.66268 -84.50311 6134 ft 219 kts 293°
2026-05-08 00:54 33.66931 -84.52074 6775 ft 245 kts 294°
2026-05-08 00:54 33.67670 -84.53994 7708 ft 256 kts 294°
2026-05-08 00:55 33.68509 -84.55831 8943 ft 257 kts 305°
2026-05-08 00:55 33.69874 -84.57289 9991 ft 271 kts 324°
2026-05-08 00:55 33.71666 -84.58103 11038 ft 286 kts 342°
2026-05-08 00:55 33.73754 -84.58214 11715 ft 313 kts 352°
2026-05-08 00:56 33.75272 -84.58167 12089 ft 327 kts 353°
2026-05-08 00:57 33.77312 -84.58115 12572 ft 313 kts 351°
2026-05-08 00:57 33.79483 -84.58135 12580 ft 320 kts 349°
2026-05-08 00:57 33.81751 -84.57908 12596 ft 339 kts
2026-05-08 00:57 33.84049 -84.57057 12616 ft 350 kts
2026-05-08 00:58 33.86387 -84.56150 12626 ft 356 kts
2026-05-08 00:58 33.88773 -84.55285 12630 ft 361 kts
2026-05-08 00:58 33.91199 -84.54418 12639 ft 366 kts
2026-05-08 00:58 33.93652 -84.53509 12650 ft 372 kts
2026-05-08 00:59 33.96139 -84.52578 12650 ft 376 kts
2026-05-08 00:59 33.98656 -84.51651 12651 ft 380 kts
2026-05-08 00:59 34.01177 -84.50718 13055 ft 377 kts
2026-05-08 00:59 34.03629 -84.49756 14200 ft 374 kts
2026-05-08 01:00 34.06128 -84.48814 15062 ft 380 kts
2026-05-08 01:00 34.08697 -84.47916 15807 ft 388 kts
2026-05-08 01:00 34.11298 -84.46974 16708 ft 393 kts
2026-05-08 01:00 34.13935 -84.45970 17494 ft 400 kts
2026-05-08 01:01 34.16620 -84.44962 18201 ft 407 kts
2026-05-08 01:01 34.19343 -84.43964 18992 ft 411 kts
2026-05-08 01:01 34.22096 -84.42950 19731 ft 417 kts
2026-05-08 01:01 34.24883 -84.41912 20438 ft 422 kts
2026-05-08 01:02 34.27701 -84.40856 21148 ft 426 kts
2026-05-08 01:02 34.30559 -84.39887 21762 ft 426 kts
2026-05-08 01:02 34.33427 -84.39201 22472 ft 425 kts 359°
2026-05-08 01:02 34.36355 -84.38536 23089 ft 431 kts 359°
2026-05-08 01:03 34.39327 -84.37829 23617 ft 439 kts 359°
2026-05-08 01:03 34.42328 -84.37076 24235 ft 442 kts 360°
2026-05-08 01:03 34.45356 -84.36334 24789 ft 445 kts 359°
2026-05-08 01:03 34.48411 -84.35615 25328 ft 450 kts 359°
2026-05-08 01:04 34.51504 -84.34881 25860 ft 455 kts 359°
2026-05-08 01:04 34.54617 -84.34119 26425 ft 458 kts
2026-05-08 01:04 34.57758 -84.33349 26874 ft 462 kts 359°
2026-05-08 01:04 34.60926 -84.32588 27342 ft 466 kts 359°
2026-05-08 01:05 34.64079 -84.31835 27789 ft 469 kts 359°
2026-05-08 01:05 34.67294 -84.31053 28254 ft 473 kts 359°
2026-05-08 01:05 34.70529 -84.30259 28742 ft 476 kts 359°
2026-05-08 01:05 34.73788 -84.29468 29120 ft 480 kts 358°
2026-05-08 01:06 34.77081 -84.28676 29527 ft 483 kts 358°
2026-05-08 01:06 34.80386 -84.27871 29958 ft 486 kts 358°
2026-05-08 01:06 34.83712 -84.27059 30311 ft 490 kts 358°
2026-05-08 01:06 34.87065 -84.26241 30733 ft 492 kts 358°
2026-05-08 01:07 34.90430 -84.25422 31105 ft 495 kts 358°
2026-05-08 01:07 34.93817 -84.24596 31454 ft 498 kts 357°
2026-05-08 01:07 34.97229 -84.23763 31819 ft 501 kts 357°
2026-05-08 01:07 35.00667 -84.22925 32131 ft 505 kts 357°
2026-05-08 01:08 35.04074 -84.22093 32491 ft 508 kts 357°
2026-05-08 01:08 35.07550 -84.21240 32869 ft 510 kts 357°
2026-05-08 01:08 35.11046 -84.20384 33058 ft 516 kts 357°
2026-05-08 01:08 35.14554 -84.19519 33739 ft 509 kts 357°
2026-05-08 01:09 35.18004 -84.18658 34284 ft 507 kts 356°
2026-05-08 01:09 35.21469 -84.17823 34606 ft 506 kts 356°
2026-05-08 01:09 35.24894 -84.16983 35331 ft 499 kts 356°
2026-05-08 01:09 35.28306 -84.16142 35528 ft 503 kts 356°
2026-05-08 01:10 35.31748 -84.15300 35750 ft 504 kts 356°
2026-05-08 01:10 35.35153 -84.14444 36393 ft 497 kts 356°
2026-05-08 01:10 35.38558 -84.13606 36553 ft 500 kts 355°
2026-05-08 01:10 35.41900 -84.12788 37056 ft 495 kts 355°
2026-05-08 01:11 35.45299 -84.11960 37014 ft 499 kts 355°
2026-05-08 01:11 35.51993 -84.10278 37010 ft 486 kts 355°
2026-05-08 01:12 35.58584 -84.08667 37017 ft 481 kts 355°
2026-05-08 01:12 35.65121 -84.07030 37014 ft 477 kts 355°
2026-05-08 01:13 35.71631 -84.05426 37008 ft 478 kts 355°
2026-05-08 01:13 35.78148 -84.03795 37018 ft 478 kts 355°
2026-05-08 01:14 35.84627 -84.02180 37019 ft 478 kts 354°
2026-05-08 01:14 35.91161 -84.00535 37014 ft 483 kts 357°
2026-05-08 01:15 35.97708 -83.98243 37015 ft 491 kts
2026-05-08 01:15 36.04261 -83.95932 37017 ft 489 kts 359°
2026-05-08 01:16 36.10812 -83.93631 37018 ft 490 kts 360°
2026-05-08 01:16 36.17329 -83.91313 37024 ft 490 kts 359°
2026-05-08 01:17 36.23883 -83.89006 37025 ft 490 kts 360°
2026-05-08 01:17 36.30436 -83.86670 37022 ft 490 kts 359°
2026-05-08 01:18 36.36993 -83.84350 37028 ft 490 kts 360°
2026-05-08 01:18 36.43491 -83.82029 37041 ft 491 kts 360°
2026-05-08 01:19 36.50071 -83.79688 37034 ft 491 kts 360°
2026-05-08 01:19 36.56598 -83.77942 37050 ft 469 kts 351°
2026-05-08 01:20 36.63084 -83.76831 37052 ft 472 kts 352°
2026-05-08 01:20 36.69591 -83.75654 37056 ft 472 kts 351°
2026-05-08 01:21 36.76036 -83.74539 37050 ft 471 kts 352°
2026-05-08 01:21 36.82540 -83.73361 37054 ft 471 kts 352°
2026-05-08 01:22 36.89044 -83.72235 37048 ft 471 kts 352°
2026-05-08 01:22 36.95545 -83.71068 37048 ft 471 kts 352°
2026-05-08 01:23 37.02001 -83.69938 37057 ft 473 kts 352°
2026-05-08 01:23 37.08492 -83.68764 37052 ft 470 kts 352°
2026-05-08 01:24 37.14986 -83.67622 37049 ft 471 kts 352°
2026-05-08 01:24 37.21482 -83.66458 37051 ft 474 kts 352°
2026-05-08 01:25 37.28002 -83.65277 37058 ft 472 kts 352°
2026-05-08 01:25 37.31193 -83.64852 37052 ft 457 kts 345°
2026-05-08 01:25 37.34285 -83.65075 37059 ft 435 kts 335°
2026-05-08 01:25 37.37178 -83.65884 37058 ft 419 kts 328°
2026-05-08 01:26 37.39964 -83.66908 37043 ft 415 kts 328°
2026-05-08 01:26 37.42706 -83.67887 36410 ft 408 kts 328°
2026-05-08 01:26 37.45439 -83.68870 35548 ft 407 kts 328°
2026-05-08 01:26 37.48146 -83.69849 34875 ft 403 kts 327°
2026-05-08 01:27 37.50821 -83.70814 34198 ft 398 kts 327°
2026-05-08 01:27 37.53473 -83.71775 33428 ft 395 kts 327°
2026-05-08 01:27 37.56098 -83.72728 32712 ft 391 kts 327°
2026-05-08 01:27 37.58664 -83.73656 31988 ft 387 kts 328°
2026-05-08 01:28 37.61247 -83.74590 31277 ft 384 kts 328°
2026-05-08 01:28 37.63796 -83.75511 30653 ft 378 kts 328°
2026-05-08 01:28 37.66318 -83.76434 29899 ft 376 kts 328°
2026-05-08 01:28 37.68818 -83.77341 29269 ft 371 kts 329°
2026-05-08 01:29 37.71292 -83.78236 28584 ft 369 kts 329°
2026-05-08 01:29 37.73749 -83.79133 27956 ft 365 kts 329°
2026-05-08 01:29 37.76172 -83.80018 27321 ft 361 kts 329°
2026-05-08 01:29 37.78546 -83.80878 26619 ft 359 kts 330°
2026-05-08 01:30 37.80934 -83.81748 25933 ft 354 kts 329°
2026-05-08 01:30 37.83288 -83.82605 25278 ft 350 kts 330°
2026-05-08 01:30 37.85621 -83.83458 24625 ft 348 kts 330°
2026-05-08 01:30 37.87936 -83.84308 23987 ft 345 kts 330°
2026-05-08 01:31 37.90255 -83.85163 22815 ft 355 kts 331°
2026-05-08 01:31 37.92643 -83.86040 22075 ft 355 kts 332°
2026-05-08 01:31 37.94999 -83.86881 21457 ft 350 kts 332°
2026-05-08 01:31 37.97333 -83.87734 20743 ft 348 kts 332°
2026-05-08 01:32 37.99650 -83.88591 20088 ft 345 kts 333°
2026-05-08 01:32 38.01906 -83.89421 19424 ft 340 kts 333°
2026-05-08 01:32 38.04176 -83.90257 18692 ft 338 kts 333°
2026-05-08 01:32 38.06430 -83.91078 18001 ft 336 kts 333°
2026-05-08 01:33 38.08669 -83.91896 17346 ft 333 kts 334°
2026-05-08 01:33 38.10880 -83.92717 16657 ft 331 kts 334°
2026-05-08 01:33 38.13033 -83.93636 16068 ft 319 kts 326°
2026-05-08 01:33 38.14916 -83.94980 16033 ft 312 kts 322°
2026-05-08 01:34 38.16826 -83.96354 16034 ft 314 kts 323°
2026-05-08 01:34 38.18729 -83.97681 16033 ft 318 kts 323°
2026-05-08 01:34 38.20650 -83.99048 16037 ft 317 kts 323°
2026-05-08 01:34 38.22566 -84.00439 16040 ft 317 kts 322°
2026-05-08 01:35 38.24453 -84.01801 15623 ft 310 kts 323°
2026-05-08 01:35 38.26356 -84.03160 14764 ft 316 kts 323°
2026-05-08 01:35 38.28256 -84.04526 14213 ft 310 kts 324°
2026-05-08 01:35 38.30129 -84.05876 13542 ft 309 kts 324°
2026-05-08 01:36 38.31995 -84.07222 12870 ft 308 kts 325°
2026-05-08 01:36 38.33856 -84.08556 12244 ft 306 kts 325°
2026-05-08 01:36 38.35654 -84.09854 11997 ft 296 kts 326°
2026-05-08 01:36 38.37464 -84.11164 11932 ft 295 kts 326°
2026-05-08 01:37 38.39267 -84.12469 10990 ft 304 kts 326°
2026-05-08 01:37 38.41108 -84.13800 10372 ft 302 kts 327°
2026-05-08 01:37 38.42893 -84.15079 10260 ft 284 kts 327°
2026-05-08 01:37 38.44562 -84.16276 10110 ft 270 kts 327°
2026-05-08 01:38 38.46163 -84.17440 10020 ft 262 kts 327°
2026-05-08 01:38 38.47794 -84.18633 10033 ft 270 kts 327°
2026-05-08 01:38 38.49427 -84.19814 10031 ft 275 kts 327°
2026-05-08 01:38 38.51059 -84.20991 10024 ft 272 kts 327°
2026-05-08 01:39 38.52716 -84.22195 10025 ft 273 kts 327°
2026-05-08 01:39 38.54367 -84.23397 10027 ft 275 kts 327°
2026-05-08 01:39 38.56001 -84.24582 9683 ft 269 kts 327°
2026-05-08 01:39 38.57645 -84.25774 9059 ft 273 kts 328°
2026-05-08 01:40 38.59294 -84.26969 8532 ft 272 kts 328°
2026-05-08 01:40 38.60936 -84.28163 8049 ft 270 kts 329°
2026-05-08 01:40 38.62540 -84.29318 8010 ft 266 kts 329°
2026-05-08 01:40 38.63992 -84.30800 8019 ft 262 kts 306°
2026-05-08 01:41 38.64806 -84.32883 8019 ft 271 kts 284°
2026-05-08 01:41 38.64971 -84.35243 8016 ft 270 kts 271°
2026-05-08 01:41 38.64956 -84.37639 8011 ft 267 kts 270°
2026-05-08 01:41 38.64961 -84.40031 8011 ft 269 kts 271°
2026-05-08 01:42 38.64980 -84.42422 8015 ft 269 kts 271°
2026-05-08 01:42 38.64990 -84.44814 8017 ft 269 kts 271°
2026-05-08 01:42 38.65000 -84.47207 8019 ft 269 kts 271°
2026-05-08 01:42 38.65013 -84.49590 7996 ft 264 kts 271°
2026-05-08 01:43 38.65021 -84.51880 7707 ft 255 kts 271°
2026-05-08 01:43 38.65091 -84.54054 7712 ft 235 kts 276°
2026-05-08 01:43 38.65209 -84.56061 7602 ft 221 kts 274°
2026-05-08 01:43 38.65304 -84.58033 7141 ft 224 kts 274°
2026-05-08 01:44 38.65402 -84.59981 7001 ft 213 kts 275°
2026-05-08 01:44 38.65596 -84.61927 7002 ft 221 kts 293°
2026-05-08 01:44 38.66547 -84.63403 7192 ft 229 kts 323°
2026-05-08 01:44 38.68005 -84.64168 7143 ft 225 kts 353°
2026-05-08 01:45 38.69616 -84.64194 7050 ft 232 kts 358°
2026-05-08 01:45 38.71173 -84.64191 6841 ft 224 kts 356°
2026-05-08 01:45 38.72751 -84.64262 6326 ft 229 kts 355°
2026-05-08 01:45 38.74331 -84.64323 5976 ft 226 kts 356°
2026-05-08 01:46 38.75888 -84.64371 5727 ft 216 kts 356°
2026-05-08 01:46 38.77325 -84.64424 5621 ft 203 kts 355°
2026-05-08 01:46 38.78753 -84.64478 5202 ft 206 kts 355°
2026-05-08 01:46 38.80178 -84.64525 4891 ft 203 kts 356°
2026-05-08 01:47 38.81516 -84.64568 4810 ft 183 kts 356°
2026-05-08 01:47 38.82792 -84.64652 4328 ft 186 kts 353°
2026-05-08 01:47 38.84060 -84.64741 3995 ft 181 kts 357°
2026-05-08 01:48 38.86463 -84.64738 3991 ft 164 kts 358°
2026-05-08 01:48 38.87602 -84.64735 3811 ft 161 kts 357°
2026-05-08 01:48 38.88686 -84.64731 3608 ft 152 kts 358°
2026-05-08 01:48 38.89713 -84.64726 3423 ft 146 kts 356°
2026-05-08 01:49 38.90722 -84.64730 3238 ft 143 kts 358°
2026-05-08 01:49 38.91380 -84.64723 3134 ft 142 kts 358°
2026-05-08 01:49 38.92378 -84.64737 2941 ft 145 kts 356°
2026-05-08 01:49 38.93697 -84.64691 2694 ft 145 kts 358°
2026-05-08 01:50 38.94702 -84.64737 2537 ft 145 kts 357°
2026-05-08 01:50 38.95729 -84.64712 2333 ft 148 kts 358°
2026-05-08 01:50 38.96751 -84.64721 2107 ft 148 kts 358°
2026-05-08 01:50 38.97433 -84.64711 1989 ft 149 kts 359°
2026-05-08 01:51 38.98802 -84.64705 1698 ft 145 kts 359°
2026-05-08 01:51 38.99467 -84.64707 1574 ft 144 kts 359°
2026-05-08 01:51 39.00472 -84.64698 1390 ft 144 kts 359°
2026-05-08 01:51 39.01468 -84.64692 1207 ft 143 kts 359°
2026-05-08 01:52 39.02781 -84.64685 961 ft 143 kts 359°
2026-05-08 01:52 39.03714 -84.64680 902 ft 119 kts 359°
2026-05-08 01:52 39.04209 -84.64672 897 ft 96 kts
2026-05-08 01:52 39.04753 -84.64672 902 ft 48 kts
2026-05-08 01:53 39.04998 -84.64722 898 ft 25 kts 334°
2026-05-08 01:53 39.05102 -84.64799 897 ft 18 kts 330°
2026-05-08 01:53 39.05156 -84.64937 893 ft 24 kts 268°
2026-05-08 01:53 39.05155 -84.65194 892 ft 28 kts 270°
2026-05-08 01:54 39.05136 -84.65370 888 ft 11 kts 213°
2026-05-08 01:54 39.05084 -84.65374 888 ft 2 kts 179°